Date String (YYYY-MM-DD hh:mm:ss) UTC,Instrument flags,absolute air pressure of the measurement (hPa),sample flow rate (lpm),inlet stack bypass flow (lpm),air temperature of the measurement (°C),ambient temperature measured by the external sensor (°C),aerosol sample conditioner tube jacket temperature (°C),OPC LED temperature (°C),internal box temperature (°C),relative humidity of the measurement (%),span deviation,mass concentration of particles derived from Lorenz-Mie calculation of OPC scattering (μg/m³),mass concentration of particles derived from Lorenz-Mie calculation of OPC scattering (μg/m³),mass concentration of particles derived from Lorenz-Mie calculation of OPC scattering (μg/m³)
DateTimeUTC,F1_M11,P_M11,Q1_M11,Q2_M11,T1_M11,T2_M11,T3_M11,T4_M11,T5_M11,U1_M11,ZSPAN_M11,X2_M11,X0_M11,X1_M11
2023-08-19 02:00:00,SystemResetWarning,0830.1,5.01,000.00,028.2,026.2,000.0,036.5,029.7,27.5,0000.0,0002.91,0008.79,0002.04
2023-08-19 02:01:00,SystemResetWarning,0830.1,4.98,000.00,028.3,025.8,000.0,036.5,029.6,26.8,0000.0,0002.84,0008.55,0002.00
2023-08-19 02:02:00,SystemResetWarning,0830.1,5.00,000.00,028.2,024.3,000.0,036.4,029.3,26.6,0000.0,0002.80,0007.60,0001.97
2023-08-19 02:03:00,SystemResetWarning,0830.1,5.01,000.00,028.1,023.7,000.0,036.3,029.2,26.6,0000.0,0002.67,0007.41,0001.91
2023-08-19 02:04:00,SystemResetWarning,0830.1,5.01,000.00,028.0,023.8,000.0,036.2,028.9,26.1,0000.0,0002.57,0007.37,0001.86
2023-08-19 02:05:00,SystemResetWarning,0830.1,5.01,000.00,027.9,024.2,000.0,036.3,029.0,26.4,0000.0,0002.53,0007.23,0001.81
2023-08-19 02:06:00,SystemResetWarning,0830.1,5.00,000.00,027.9,024.6,000.0,036.3,029.1,27.0,0000.0,0002.47,0006.67,0001.74
2023-08-19 02:07:00,SystemResetWarning,0830.1,5.00,000.00,027.9,025.1,000.0,036.3,029.3,26.7,0000.0,0002.38,0005.97,0001.68
2023-08-19 02:08:00,SystemResetWarning,0830.1,5.00,000.00,028.0,025.5,000.0,036.3,029.4,26.6,0000.0,0002.28,0005.76,0001.62
2023-08-19 02:09:00,SystemResetWarning,0830.1,5.00,000.00,028.0,025.8,000.0,036.3,029.5,26.6,0000.0,0002.18,0005.57,0001.57
2023-08-19 02:10:00,SystemResetWarning,0830.1,5.01,000.00,028.0,026.1,000.0,036.4,029.6,26.7,0000.0,0002.10,0004.44,0001.53
2023-08-19 02:11:00,SystemResetWarning,0830.1,5.00,000.00,028.1,026.3,000.0,036.4,029.7,26.4,0000.0,0002.04,0004.28,0001.50
2023-08-19 02:12:00,SystemResetWarning,0830.1,4.98,000.00,028.1,025.3,000.0,036.3,029.4,26.5,0000.0,0001.95,0003.90,0001.46
2023-08-19 02:13:00,SystemResetWarning,0830.1,5.02,000.00,028.0,023.9,000.0,036.2,029.1,26.4,0000.0,0001.91,0003.78,0001.45
2023-08-19 02:14:00,SystemResetWarning,0830.1,5.01,000.00,027.9,023.6,000.0,036.1,029.0,26.7,0000.0,0001.98,0003.92,0001.47
2023-08-19 02:15:00,SystemResetWarning,0830.1,5.00,000.00,027.8,023.9,000.0,036.1,028.8,26.6,0000.0,0001.98,0003.84,0001.48
2023-08-19 02:16:00,SystemResetWarning,0830.1,5.00,000.00,027.7,024.3,000.0,036.1,029.0,26.8,0000.0,0002.00,0003.83,0001.51
2023-08-19 02:17:00,SystemResetWarning,0830.1,5.01,000.00,027.7,024.8,000.0,036.1,029.1,27.0,0000.0,0002.05,0003.90,0001.56
2023-08-19 02:18:00,SystemResetWarning,0830.1,5.00,000.00,027.8,025.2,000.0,036.2,029.3,27.2,0000.0,0002.12,0003.88,0001.61
2023-08-19 02:19:00,SystemResetWarning,0830.1,5.00,000.00,027.8,025.6,000.0,036.2,029.4,28.4,0000.0,0002.21,0003.35,0001.65
2023-08-19 02:20:00,SystemResetWarning,0830.2,5.01,000.00,027.8,025.9,000.0,036.2,029.5,29.7,0000.0,0002.29,0003.57,0001.68
2023-08-19 02:21:00,SystemResetWarning,0830.1,5.00,000.00,027.9,026.2,000.0,036.2,029.5,29.2,0000.0,0002.34,0003.60,0001.70
2023-08-19 02:22:00,SystemResetWarning,0830.1,5.00,000.00,027.9,026.4,000.0,036.2,029.6,27.6,0000.0,0002.32,0003.53,0001.71
2023-08-19 02:23:00,SystemResetWarning,0830.1,4.99,000.00,028.0,025.7,000.0,036.2,029.5,30.4,0000.0,0002.35,0003.55,0001.73
2023-08-19 02:24:00,SystemResetWarning,0830.1,5.01,000.00,027.9,024.2,000.0,036.1,029.2,31.0,0000.0,0002.32,0003.53,0001.69
2023-08-19 02:25:00,SystemResetWarning,0830.1,5.00,000.00,027.8,023.6,000.0,036.0,029.0,28.9,0000.0,0002.27,0003.44,0001.66
2023-08-19 02:26:00,SystemResetWarning,0830.1,5.01,000.00,027.7,023.8,000.0,036.0,028.8,27.9,0000.0,0002.23,0003.56,0001.62
2023-08-19 02:27:00,SystemResetWarning,0830.1,5.01,000.00,027.6,024.2,000.0,036.0,028.9,28.2,0000.0,0002.22,0004.02,0001.58
2023-08-19 02:28:00,SystemResetWarning,0830.1,5.00,000.00,027.6,024.6,000.0,036.0,029.1,28.3,0000.0,0002.20,0004.16,0001.53
2023-08-19 02:29:00,SystemResetWarning,0830.1,4.99,000.00,027.7,025.1,000.0,036.1,029.2,28.1,0000.0,0002.12,0005.23,0001.47
2023-08-19 02:30:00,SystemResetWarning,0830.1,5.00,000.00,027.7,025.5,000.0,036.1,029.3,27.9,0000.0,0002.02,0006.14,0001.41
2023-08-19 02:31:00,SystemResetWarning,0830.1,5.00,000.00,027.7,025.8,000.0,036.1,029.4,27.6,0000.0,0001.92,0006.10,0001.35
2023-08-19 02:32:00,SystemResetWarning,0830.1,4.99,000.00,027.8,026.1,000.0,036.1,029.5,27.3,0000.0,0001.83,0006.96,0001.29
2023-08-19 02:33:00,SystemResetWarning,0830.1,5.00,000.00,027.8,026.4,000.0,036.2,029.6,27.0,0000.0,0001.80,0007.03,0001.25
2023-08-19 02:34:00,SystemResetWarning,0830.1,4.99,000.00,027.9,026.0,000.0,036.1,029.5,26.6,0000.0,0001.74,0006.97,0001.20
2023-08-19 02:35:00,SystemResetWarning,0830.1,5.00,000.00,027.8,024.4,000.0,036.0,029.3,26.5,0000.0,0001.67,0006.84,0001.16
2023-08-19 02:36:00,SystemResetWarning,0830.1,5.01,000.00,027.7,023.6,000.0,035.9,029.1,26.5,0000.0,0001.61,0006.71,0001.14
2023-08-19 02:37:00,SystemResetWarning,0830.1,5.01,000.00,027.7,023.7,000.0,035.9,028.9,26.6,0000.0,0001.59,0006.66,0001.12
2023-08-19 02:38:00,SystemResetWarning,0830.1,5.01,000.00,027.6,024.1,000.0,036.0,028.9,26.9,0000.0,0001.55,0006.04,0001.11
2023-08-19 02:39:00,SystemResetWarning,0830.1,5.00,000.00,027.6,024.6,000.0,036.0,029.0,27.1,0000.0,0001.47,0005.75,0001.09
2023-08-19 02:40:00,SystemResetWarning,0830.1,5.00,000.00,027.6,025.0,000.0,036.0,029.2,27.4,0000.0,0001.47,0004.95,0001.09
2023-08-19 02:41:00,SystemResetWarning,0830.1,5.00,000.00,027.6,025.4,000.0,036.0,029.3,27.3,0000.0,0001.44,0003.34,0001.09
2023-08-19 02:42:00,SystemResetWarning,0830.1,5.00,000.00,027.7,025.8,000.0,036.0,029.4,26.9,0000.0,0001.41,0003.16,0001.08
2023-08-19 02:43:00,SystemResetWarning,0830.1,4.99,000.00,027.7,026.1,000.0,036.1,029.5,26.7,0000.0,0001.43,0002.25,0001.09
2023-08-19 02:44:00,SystemResetWarning,0830.2,4.99,000.00,027.8,026.3,000.0,036.1,029.5,26.4,0000.0,0001.41,0002.04,0001.10
2023-08-19 02:45:00,SystemResetWarning,0830.2,5.00,000.00,027.8,026.5,000.0,036.1,029.6,26.4,0000.0,0001.41,0002.03,0001.10
2023-08-19 02:46:00,SystemResetWarning,0830.3,5.00,000.00,027.8,025.6,000.0,036.1,029.4,26.1,0000.0,0001.44,0002.10,0001.10
2023-08-19 02:47:00,SystemResetWarning,0830.2,5.00,000.00,027.8,024.1,000.0,036.0,029.1,26.1,0000.0,0001.44,0002.11,0001.11
2023-08-19 02:48:00,SystemResetWarning,0830.2,5.00,000.00,027.7,023.6,000.0,035.9,029.0,26.2,0000.0,0001.53,0002.26,0001.16
2023-08-19 02:49:00,SystemResetWarning,0830.2,5.01,000.00,027.6,023.8,000.0,035.9,028.8,26.6,0000.0,0001.59,0002.32,0001.22
2023-08-19 02:50:00,SystemResetWarning,0830.2,5.01,000.00,027.5,024.2,000.0,035.9,028.9,26.7,0000.0,0001.65,0002.99,0001.27
2023-08-19 02:51:00,SystemResetWarning,0830.2,5.00,000.00,027.5,024.7,000.0,035.9,029.0,26.9,0000.0,0001.65,0004.36,0001.30
2023-08-19 02:52:00,SystemResetWarning,0830.2,5.00,000.00,027.6,025.1,000.0,036.0,029.2,26.9,0000.0,0001.80,0005.28,0001.38
2023-08-19 02:53:00,SystemResetWarning,0830.3,5.00,000.00,027.6,025.5,000.0,036.0,029.3,26.3,0000.0,0002.00,0005.77,0001.49
2023-08-19 02:54:00,SystemResetWarning,0830.3,4.99,000.00,027.6,025.8,000.0,036.0,029.4,26.5,0000.0,0002.06,0006.86,0001.56
2023-08-19 02:55:00,SystemResetWarning,0830.2,5.00,000.00,027.7,026.1,000.0,036.0,029.5,26.6,0000.0,0002.13,0007.77,0001.58
2023-08-19 02:56:00,SystemResetWarning,0830.2,4.99,000.00,027.7,026.4,000.0,036.1,029.5,26.9,0000.0,0002.16,0007.80,0001.60
2023-08-19 02:57:00,SystemResetWarning,0830.3,4.99,000.00,027.8,026.6,000.0,036.1,029.6,27.3,0000.0,0002.20,0008.34,0001.64
2023-08-19 02:58:00,SystemResetWarning,0830.3,4.99,000.00,027.8,026.1,000.0,036.1,029.6,26.7,0000.0,0002.22,0008.56,0001.66
2023-08-19 02:59:00,SystemResetWarning,0830.3,5.01,000.00,027.8,024.5,000.0,036.0,029.3,26.2,0000.0,0002.16,0008.48,0001.63
